Regional Weather Roundup
Issued by NWS

Home | Current Version | Previous Version | Text Only | Print | Product List | Glossary On
Versions: 1 2 3 4 5 6 7 8 9 10 11 12 13 14 15 16 17 18 19 20 21 22 23 24 25 26 27 28 29 30 31 32 33 34 35 36 37 38 39 40 41 42 43 44 45 46 47 48 49 50
000
ASUS43 KTOP 222008
RWRKS

WEATHER ROUNDUP FOR KANSAS
NATIONAL WEATHER SERVICE GOODLAND KS
300 PM CDT SUN OCT 22 2017

NOTE:  "FAIR" INDICATES FEW OR NO CLOUDS BELOW 12,000 FEET WITH NO
SIGNIFICANT WEATHER AND/OR OBSTRUCTIONS TO VISIBILITY.

KSZ001>006-013>018-027>032-041>047-222100-
NORTHWEST KANSAS

CITY           SKY/WX    TMP DP  RH WIND       PRES   REMARKS
GOODLAND       SUNNY     65  18  16 SW16G23   30.09F
HILL CITY      SUNNY     70  21  15 SW14G28   30.09F
RUSSELL        SUNNY     70  22  16 SW14G23   30.09F
$$

KSZ061>065-074>080-084>089-222100-
SOUTHWEST KANSAS

CITY           SKY/WX    TMP DP  RH WIND       PRES   REMARKS
DODGE CITY     SUNNY     70  14  11 W12G23    30.14F
ELKHART          N/A     67  25  20 SW10        N/A
GARDEN CITY    SUNNY     69  18  14 W13       30.13F
GREAT BEND     SUNNY     69  26  20 W10G20    30.12F
LIBERAL        SUNNY     70  23  17 SW16      30.17F
PRATT          SUNNY     69  17  13 NW12      30.14F
$$

KSZ066>073-081>083-090>101-222100-
SOUTHEAST KANSAS

CITY           SKY/WX    TMP DP  RH WIND       PRES   REMARKS
CHANUTE        SUNNY     68  39  34 N12G21    30.12F
COFFEYVILLE    SUNNY     69  43  38 N8        30.11F
HUTCHINSON     SUNNY     71  23  16 NW9       30.12F
MEDICINE LODGE   N/A     74  24  15 NW10G17   30.13F
NEWTON         SUNNY     68  31  25 CALM      30.13F
PARSONS        SUNNY     69  38  32 NW13      30.13F
WICHITA INTL   SUNNY     69  31  24 W5        30.13F
WICHITA JABRA  SUNNY     67  34  29 W9        30.13F
WICHITA MCCONL SUNNY     68  35  30 NW8       30.13F
WINFIELD       SUNNY     67  40  37 W8        30.16F
$$

KSZ007>012-019>026-033>040-048>060-102>105-222100-
NORTHEAST KANSAS

CITY           SKY/WX    TMP DP  RH WIND       PRES   REMARKS
CONCORDIA      SUNNY     68  27  21 SW9G20    30.08F
EMPORIA        SUNNY     67  34  29 N5        30.12F
LAWRENCE       SUNNY     68  40  35 NW8       30.10F
MANHATTAN      SUNNY     70  32  24 VRB3G16   30.09F
MARYSVILLE     SUNNY     68  32  26 SW10G17   30.08F
OLATHE IND     SUNNY     64  40  41 NW10      30.11F
OLATHE EXE     CLOUDY    62  37  39 NW12      30.11S
SALINA         SUNNY     72  25  17 VRB6      30.11F
TOPEKA BILLARD SUNNY     69  39  33 N7        30.09F
TOPEKA FORBES  SUNNY     68  38  33 NW12G17   30.10F
$$




USA.gov is the U.S. government's official web portal to all federal, state and local government web resources and services.